DW4188 Weather Reports


time (UTC)temp
C
wind
direction
speed
KPH
gust
KPH
rain 1hr
cm
rain 24hr
cm
rain mn
cm
humidity
%
barometer
mb
20260510060904 22 169 0.0 1.6 0.00 0.00 0.00 70 1022.0
20260510060004 22 0 0.0 0.0 0.00 0.00 0.00 70 1021.6
20260510055403 22 0 0.0 0.0 0.00 0.00 0.00 70 1021.9
20260510054504 22 0 0.0 0.0 0.00 0.00 0.00 71 1021.7
20260510053625 22 0 0.0 0.0 0.00 0.00 0.00 70 1021.7
20260510052704 22 0 0.0 0.0 0.00 0.00 0.00 71 1021.8
20260510051824 22 178 0.0 1.6 0.00 0.00 0.00 71 1021.3
20260510050904 22 0 0.0 0.0 0.00 0.00 0.00 70 1021.4
20260510050004 22 0 0.0 0.0 0.00 0.00 0.00 72 1021.6
20260510045403 22 0 0.0 0.0 0.00 0.00 0.00 71 1022.0
20260510044504 22 0 0.0 0.0 0.00 0.00 0.00 70 1021.7
20260510043625 22 0 0.0 0.0 0.00 0.00 0.00 71 1021.6
20260510042704 22 0 0.0 0.0 0.00 0.00 0.00 71 1021.5
20260510041825 23 0 0.0 0.0 0.00 0.00 0.00 70 1021.5
20260510040904 23 0 0.0 0.0 0.00 0.00 0.00 69 1021.5
20260510040003 23 0 0.0 0.0 0.00 0.00 0.00 69 1021.6
20260510035404 23 0 0.0 0.0 0.00 0.00 0.00 68 1021.4
20260510034525 23 0 0.0 0.0 0.00 0.00 0.00 68 1021.4
20260510033604 23 0 0.0 0.0 0.00 0.00 0.00 67 1021.6
20260510032703 23 188 0.0 1.6 0.00 0.00 0.00 66 1021.5
20260510031804 23 0 0.0 0.0 0.00 0.00 0.00 67 1021.6
20260510030925 23 0 0.0 0.0 0.00 0.00 0.00 67 1021.5
20260510030004 23 0 0.0 0.0 0.00 0.00 0.00 67 1022.0
20260510025403 23 0 0.0 0.0 0.00 0.00 0.00 66 1021.7
20260510024503 23 0 0.0 0.0 0.00 0.00 0.00 67 1022.0
20260510023604 23 0 0.0 0.0 0.00 0.00 0.00 68 1021.9
20260510022704 22 0 0.0 0.0 0.00 0.00 0.00 68 1021.9
20260510021803 22 0 0.0 0.0 0.00 0.00 0.00 69 1022.0
20260510020904 22 0 0.0 0.0 0.00 0.00 0.00 69 1022.1
20260510020025 22 0 0.0 0.0 0.00 0.00 0.00 71 1022.5
20260510015404 22 0 0.0 0.0 0.00 0.00 0.00 71 1022.4
20260510014504 22 0 0.0 0.0 0.00 0.00 0.00 73 1022.5
20260510013604 22 0 0.0 0.0 0.00 0.00 0.00 74 1022.8
20260510012704 22 0 0.0 0.0 0.00 0.00 0.00 74 1022.9
20260510011804 21 0 0.0 0.0 0.00 0.00 0.00 74 1023.0
20260510010904 21 142 0.0 1.6 0.00 0.00 0.00 74 1023.1
20260510010004 21 0 0.0 0.0 0.00 0.00 0.00 74 1023.4
20260510005404 21 0 0.0 0.0 0.00 0.00 0.00 74 1023.2
20260510004504 21 0 0.0 0.0 0.00 0.00 0.00 75 1023.2
20260510003604 21 0 0.0 0.0 0.00 0.00 0.00 76 1023.4
20260510002704 21 0 0.0 0.0 0.00 0.00 0.00 76 1023.6
20260510001825 20 0 0.0 0.0 0.00 0.00 0.00 77 1023.6
20260510000903 20 0 0.0 0.0 0.00 0.00 0.00 77 1023.6
20260510000004 20 0 0.0 0.0 0.00 0.00 0.00 77 1023.7
20260509235403 20 0 0.0 0.0 0.00 0.00 0.00 77 1023.6
20260509234525 19 0 0.0 0.0 0.00 0.00 0.00 77 1023.6
20260509233604 19 0 0.0 0.0 0.00 0.00 0.00 77 1023.9
20260509232725 19 0 0.0 0.0 0.00 0.00 0.00 77 1023.7
20260509231804 18 0 0.0 0.0 0.00 0.00 0.00 77 1023.4
20260509230904 18 0 0.0 0.0 0.00 0.00 0.00 77 1023.3
20260509230024 18 0 0.0 0.0 0.00 0.00 0.00 77 1023.2
20260509225404 18 0 0.0 0.0 0.00 0.00 0.00 77 1023.4
20260509224504 17 0 0.0 0.0 0.00 0.00 0.00 77 1023.2
20260509223604 17 0 0.0 0.0 0.00 0.00 0.00 76 1023.4
20260509222725 17 0 0.0 0.0 0.00 0.00 0.00 76 1023.0
20260509221824 17 0 0.0 0.0 0.00 0.00 0.00 76 1022.9
20260509220904 17 0 0.0 0.0 0.00 0.00 0.00 76 1022.8
20260509220004 17 0 0.0 0.0 0.00 0.00 0.00 76 1023.0
20260509215403 16 0 0.0 0.0 0.00 0.00 0.00 76 1022.8
20260509214503 16 0 0.0 0.0 0.00 0.00 0.00 75 1023.0
20260509213603 16 0 0.0 0.0 0.00 0.00 0.00 75 1022.6
20260509212705 16 0 0.0 0.0 0.00 0.00 0.00 75 1022.5
20260509211804 16 0 0.0 0.0 0.00 0.00 0.00 75 1022.2
20260509210904 16 0 0.0 0.0 0.00 0.00 0.00 74 1022.0
20260509210024 16 0 0.0 0.0 0.00 0.00 0.00 74 1022.1
20260509205404 16 0 0.0 0.0 0.00 0.00 0.00 74 1021.7
20260509204504 16 0 0.0 0.0 0.00 0.00 0.00 74 1021.7
20260509203604 16 0 0.0 0.0 0.00 0.00 0.00 73 1021.6
20260509202704 16 0 0.0 0.0 0.00 0.00 0.00 73 1021.8
20260509201803 16 0 0.0 0.0 0.00 0.00 0.00 73 1021.5
20260509200904 16 0 0.0 0.0 0.00 0.00 0.00 73 1021.7
20260509200004 16 0 0.0 0.0 0.00 0.00 0.00 73 1021.7
20260509195404 16 0 0.0 0.0 0.00 0.00 0.00 73 1021.4
20260509194504 16 0 0.0 0.0 0.00 0.00 0.00 73 1021.2
20260509193604 16 0 0.0 0.0 0.00 0.00 0.00 73 1021.2
20260509192704 16 0 0.0 0.0 0.00 0.00 0.00 73 1021.2
20260509191825 16 0 0.0 0.0 0.00 0.00 0.00 74 1020.9
20260509190904 16 0 0.0 0.0 0.00 0.00 0.00 74 1020.8
20260509190004 16 0 0.0 0.0 0.00 0.00 0.00 75 1021.0
20260509185424 16 0 0.0 0.0 0.00 0.00 0.00 75 1020.9
20260509184504 16 0 0.0 0.0 0.00 0.00 0.00 75 1020.8
20260509183604 16 0 0.0 0.0 0.00 0.00 0.00 75 1020.8
20260509182704 16 0 0.0 0.0 0.00 0.00 0.00 75 1020.9
20260509181804 16 0 0.0 0.0 0.00 0.00 0.00 75 1020.7
20260509180903 16 0 0.0 0.0 0.00 0.00 0.00 75 1020.8
20260509180004 16 0 0.0 0.0 0.00 0.00 0.00 75 1020.7
20260509175404 16 0 0.0 0.0 0.00 0.00 0.00 75 1020.7
20260509174525 16 0 0.0 0.0 0.00 0.00 0.00 75 1020.5
20260509173604 16 0 0.0 0.0 0.00 0.00 0.00 75 1020.5
20260509172704 16 0 0.0 0.0 0.00 0.00 0.00 75 1020.6
20260509171824 16 0 0.0 0.0 0.00 0.00 0.00 75 1020.4
20260509170904 16 0 0.0 0.0 0.00 0.00 0.00 75 1020.5
20260509170004 16 0 0.0 0.0 0.00 0.00 0.00 75 1020.6
20260509165404 16 0 0.0 0.0 0.00 0.00 0.00 75 1020.5
20260509164525 16 0 0.0 0.0 0.00 0.00 0.00 75 1020.4
20260509163604 16 0 0.0 0.0 0.00 0.00 0.00 75 1020.7
20260509162703 16 0 0.0 0.0 0.00 0.00 0.00 76 1020.6
20260509161804 16 0 0.0 0.0 0.00 0.00 0.00 76 1020.4
20260509160904 16 0 0.0 0.0 0.00 0.00 0.00 76 1020.5
20260509160004 16 0 0.0 0.0 0.00 0.00 0.00 76 1020.5
20260509155404 16 0 0.0 0.0 0.00 0.00 0.00 76 1020.6
20260509154504 16 0 0.0 0.0 0.00 0.00 0.00 76 1020.4
20260509153604 16 0 0.0 0.0 0.00 0.00 0.00 76 1020.7
20260509152704 16 0 0.0 0.0 0.00 0.00 0.00 76 1020.7
20260509151803 16 0 0.0 0.0 0.00 0.00 0.00 77 1020.8
20260509150904 16 0 0.0 0.0 0.00 0.00 0.00 77 1020.7
20260509150004 16 0 0.0 0.0 0.00 0.00 0.00 77 1020.9
20260509145404 16 0 0.0 0.0 0.00 0.00 0.00 77 1020.8
20260509144504 15 0 0.0 0.0 0.00 0.00 0.00 77 1020.9
20260509143604 15 0 0.0 0.0 0.00 0.00 0.00 76 1021.2
20260509142704 15 0 0.0 0.0 0.00 0.00 0.00 76 1021.0
20260509141804 15 0 0.0 0.0 0.00 0.00 0.00 76 1021.2
20260509140925 16 0 0.0 0.0 0.00 0.00 0.00 76 1021.1
20260509140006 16 0 0.0 0.0 0.00 0.00 0.00 76 1021.1
20260509135403 16 0 0.0 0.0 0.00 0.00 0.00 76 1021.0
20260509134504 16 0 0.0 0.0 0.00 0.00 0.00 76 1021.1
20260509133625 16 0 0.0 0.0 0.00 0.00 0.00 76 1021.0
20260509132703 16 0 0.0 0.0 0.00 0.00 0.00 76 1021.3
20260509131803 16 0 0.0 0.0 0.00 0.00 0.00 76 1021.4
20260509130903 16 0 0.0 0.0 0.00 0.00 0.00 76 1021.1
20260509130004 16 0 0.0 0.0 0.00 0.00 0.00 76 1021.1
20260509125404 16 0 0.0 0.0 0.00 0.00 0.00 76 1021.0
20260509124504 16 0 0.0 0.0 0.00 0.00 0.00 76 1021.0
20260509123603 16 0 0.0 0.0 0.00 0.00 0.00 76 1021.0
20260509122704 16 0 0.0 0.0 0.00 0.00 0.00 76 1021.0
20260509121803 16 0 0.0 0.0 0.00 0.00 0.00 75 1021.0
20260509120904 17 0 0.0 0.0 0.00 0.00 0.00 75 1021.2
20260509120004 17 0 0.0 0.0 0.00 0.00 0.00 75 1021.2
20260509115425 17 0 0.0 0.0 0.00 0.00 0.00 75 1021.1
20260509114504 17 0 0.0 0.0 0.00 0.00 0.00 75 1020.8
20260509113604 17 0 0.0 0.0 0.00 0.00 0.00 75 1021.2
20260509112703 17 0 0.0 0.0 0.00 0.00 0.00 75 1021.0
20260509111804 17 0 0.0 0.0 0.00 0.00 0.00 74 1021.3
20260509110904 17 0 0.0 0.0 0.00 0.00 0.00 74 1021.2
20260509110004 17 0 0.0 0.0 0.00 0.00 0.00 74 1021.0
20260509105403 17 0 0.0 0.0 0.00 0.00 0.00 74 1021.1
20260509104504 17 0 0.0 0.0 0.00 0.00 0.00 74 1021.1
20260509103604 17 0 0.0 0.0 0.00 0.00 0.00 74 1020.9
20260509102704 17 0 0.0 0.0 0.00 0.00 0.00 74 1021.1
20260509101804 18 0 0.0 0.0 0.00 0.00 0.00 74 1021.2
20260509100925 18 0 0.0 0.0 0.00 0.00 0.00 74 1020.8
20260509100004 18 0 0.0 0.0 0.00 0.00 0.00 73 1021.0
20260509095403 18 0 0.0 0.0 0.00 0.00 0.00 73 1020.8
20260509094525 18 0 0.0 0.0 0.00 0.00 0.00 73 1020.7
20260509093604 18 0 0.0 0.0 0.00 0.00 0.00 73 1020.5
20260509092704 18 0 0.0 0.0 0.00 0.00 0.00 73 1020.7
20260509091804 18 0 0.0 0.0 0.00 0.00 0.00 73 1020.5
20260509090903 18 0 0.0 0.0 0.00 0.00 0.00 72 1020.2
20260509090024 18 0 0.0 0.0 0.00 0.00 0.00 72 1020.4
20260509085403 18 0 0.0 0.0 0.00 0.00 0.00 72 1020.3
20260509084504 19 0 0.0 0.0 0.00 0.00 0.00 71 1020.1
20260509083603 19 0 0.0 0.0 0.00 0.00 0.00 71 1020.0
20260509082725 19 0 0.0 0.0 0.00 0.00 0.00 70 1019.9
20260509081803 20 0 0.0 0.0 0.00 0.00 0.00 69 1019.9
20260509080904 20 0 0.0 0.0 0.00 0.00 0.00 68 1019.8
20260509080004 20 0 0.0 0.0 0.00 0.00 0.00 68 1019.5
20260509075403 20 0 0.0 0.0 0.00 0.00 0.00 67 1019.7
20260509074504 20 0 0.0 0.0 0.00 0.00 0.00 66 1019.4
20260509073604 20 0 0.0 0.0 0.00 0.00 0.00 64 1019.4
20260509072704 21 0 0.0 0.0 0.00 0.00 0.00 63 1019.3
20260509071804 21 0 0.0 0.0 0.00 0.00 0.00 62 1019.3
20260509070903 21 0 0.0 0.0 0.00 0.00 0.00 61 1019.6
20260509070004 21 0 0.0 0.0 0.00 0.00 0.00 61 1019.1
20260509065424 21 0 0.0 0.0 0.00 0.00 0.00 61 1019.1
20260509064503 21 0 0.0 0.0 0.00 0.00 0.00 60 1018.8
20260509063604 21 0 0.0 0.0 0.00 0.00 0.00 59 1018.8
20260509062704 21 0 0.0 0.0 0.00 0.00 0.00 59 1018.7
20260509061804 22 0 0.0 0.0 0.00 0.00 0.00 59 1018.6